Hamilton, OH

9:28 AM EDT on April 20, 2018 (GMT -0400)
Butler County Regional

Weather History for KHAO - March, 2014

Change the Weather History Date:

Saturday, March 8, 2014

  Actual Average (KLUK) Record (KLUK)
Temperature  
Mean Temperature 41 °F -  
Max Temperature 55 °F 51 °F 80 °F (1974)
Min Temperature 27 °F 31 °F 3 °F (1960)
Degree Days  
Heating Degree Days 24    
Moisture  
Dew Point 32 °F    
Average Humidity 75    
Maximum Humidity 92    
Minimum Humidity 45    
Precipitation  
Precipitation 0.00 in - - ()
Sea Level Pressure  
Sea Level Pressure 30.08 in    
Wind  
Wind Speed 4 mph (NW)    
Max Wind Speed 13 mph    
Max Gust Speed -    
Visibility 7 miles    
Events      
Averages and records for this station are not official NWS values.
T = Trace of Precipitation, MM = Missing Value Source: NWS Daily Summary

Daily Weather History Graph

Daily Weather History Graph

Search for Another Location

Airport or City:

Astronomy

Mar. 08, 2014 Rise Set
Actual Time 7:00 AM EST 6:37 PM EST
Civil Twilight 6:33 AM EST 7:04 PM EST
Nautical Twilight 6:02 AM EST 7:35 PM EST
Astronomical Twilight 5:31 AM EST 8:07 PM EST
Moon 11:42 AM EST (3/8) 1:33 AM EST (3/8)
Length of Visible Light 12h 31m
Length of Day
11h 37m
First Quarter, 51% of the Moon is Illuminated
Mar 8
First Quarter
Mar 16
Full
Mar 23
Last Quarter
Mar 30
New
Apr 7
First Quarter

Hourly Weather History & Observations

Time (EST) Temp. Windchill Dew Point Humidity Pressure Visibility Wind Dir Wind Speed Gust Speed Precip Events Conditions
12:53 AM 33.1 °F - 28.9 °F 85% 30.01 in 10.0 mi Calm Calm - N/A   Clear
1:53 AM 30.0 °F - 27.0 °F 88% 30.01 in 9.0 mi Calm Calm - N/A   Clear
2:53 AM 28.9 °F - 26.1 °F 89% 30.01 in 9.0 mi Calm Calm - N/A   Clear
3:53 AM 27.0 °F - 25.0 °F 92% 30.00 in 9.0 mi Calm Calm - N/A   Clear
4:53 AM 27.0 °F - 25.0 °F 92% 30.01 in 9.0 mi Calm Calm - N/A   Clear
5:53 AM 27.0 °F - 25.0 °F 92% 30.03 in 8.0 mi Calm Calm - N/A   Clear
6:53 AM 28.9 °F - 26.1 °F 89% 30.05 in 9.0 mi Calm Calm - N/A   Clear
7:53 AM 30.9 °F - 28.9 °F 92% 30.07 in 7.0 mi Calm Calm - N/A   Clear
8:53 AM 37.9 °F - 32.0 °F 79% 30.09 in 8.0 mi Calm Calm - N/A   Clear
9:53 AM 46.0 °F 43.9 °F 35.1 °F 66% 30.07 in 8.0 mi WSW 4.6 mph - N/A   Clear
10:53 AM 48.9 °F - 36.0 °F 61% 30.07 in 8.0 mi WNW 5.8 mph - N/A   Clear
11:53 AM 51.1 °F - 36.0 °F 56% 30.06 in 9.0 mi Variable 3.5 mph - N/A   Mostly Cloudy
12:53 PM 55.0 °F - 36.0 °F 49% 30.06 in 10.0 mi SW 8.1 mph - N/A   Partly Cloudy
1:53 PM 55.0 °F - 35.1 °F 47% 30.04 in 10.0 mi Variable 4.6 mph - N/A   Mostly Cloudy
2:53 PM 55.9 °F - 35.1 °F 45% 30.03 in 10.0 mi West 10.4 mph - N/A   Mostly Cloudy
3:53 PM 55.9 °F - 37.0 °F 49% 30.03 in 10.0 mi WNW 10.4 mph - N/A   Mostly Cloudy
4:53 PM 52.0 °F - 37.9 °F 59% 30.04 in 7.0 mi NNW 9.2 mph - N/A   Overcast
5:53 PM 48.9 °F - 37.0 °F 64% 30.06 in 5.0 mi NW 12.7 mph - N/A   Haze
6:53 PM 44.1 °F 38.1 °F 37.0 °F 76% 30.11 in 4.0 mi North 11.5 mph - N/A   Haze
7:23 PM 42.1 °F 36.6 °F 36.0 °F 79% 30.10 in 3.0 mi NNW 9.2 mph - N/A   Haze
7:53 PM 39.9 °F 35.8 °F 34.0 °F 79% 30.13 in 3.0 mi NNW 5.8 mph - N/A   Haze
8:09 PM 39.9 °F 32.9 °F 34.0 °F 79% 30.12 in 3.0 mi NNW 11.5 mph - N/A   Haze
8:53 PM 37.9 °F 30.9 °F 33.1 °F 83% 30.14 in 3.0 mi NNW 10.4 mph - N/A   Haze
9:53 PM 37.0 °F 29.8 °F 32.0 °F 82% 30.17 in 4.0 mi NNW 10.4 mph - N/A   Haze
10:53 PM 36.0 °F 28.5 °F 30.9 °F 82% 30.19 in 5.0 mi NNW 10.4 mph - N/A   Haze
11:34 PM 36.0 °F 29.0 °F 30.0 °F 79% 30.19 in 6.0 mi NW 9.2 mph - N/A   Haze
11:53 PM 36.0 °F 28.0 °F 30.0 °F 79% 30.20 in 6.0 mi NNW 11.5 mph - N/A   Haze